User: anonymous   Login
Location: NJAA Observatory
(40.6819°N, 74.8979°W)
Time: 17:40:05
(UTC-04:00)
Language:

CENTAUR R/B - Orbit

View from above orbital plane
View from above orbital plane
View from above satellite
View from above satellite

Ground track
Ground track

The orbit data is extracted from the following two-line orbital elements,

1 26906U 01040B   17086.17101542 0.00000000  00000-0  00000-0 0    04
2 26906  63.4525 183.5809 0345000 342.5018  17.4981 13.44006038    08
Epoch (UTC): 27 March 2017 04:06:15
Eccentricity: 0.0345000
inclination: 63.4525°
perigee height: 836 km
apogee height: 1352 km
right ascension of ascending node: 183.5809°
argument of perigee: 342.5018°
revolutions per day: 13.44006038
mean anomaly at epoch: 17.4981°
orbit number at epoch: 0

The dashed part of the orbit path shows where the satellite is in the earth's shadow,  

DLR